Погода в Курске

Погода в Курске : погода сейчас, прогноз погоды и архив. Всё, что Вы хотите узнать о погоде в Курске!

Хотите узнать прогноз погоды в Курске? Тогда Вам сюда: Погода в Курске

Поиск расширенной информации на нашем сайте:

Другие новости

Новости СМИ2

Главная страница сайта

Новости сайта

03.07.2017

Напоминаем, что на нашем специализированном сайте Метеоцентр.Азия вы можете получить высокодетализированные автоматические прогнозы погоды по пунктам России, СНГ и мира в авиационном формате (включающие направление и скорость ветра, видимость, явления погоды, количество и форму облачности, нижнюю и верхнюю границу облачности).


Погода в Курске - сегодня

Время (UTC), дата Ветер
(°,м/с) 
Видим.   Явления Облачность Т
(°С)
Тd
(°С)
f(%) Тe
(°С)
Pmin
(гПа)
dP
(гПа)
Po
(мм)
O2
(г/м3)
Тmin Tmax R s Состояние
почвы
15 14.06.18 080 (В) 10 км    8/6 600 м средняя, верхняя 
[Cu med, cong|Ac trans|Ci fib]
+24.9 +9.3 37 +26  1010  -0.5  736  270           
21 14.06.18 090 (В) 10 км    8/0 средняя 
[Ac trans]
+18.4 +12.3 68 +24  1011.7  0.8  737  276           
00 15.06.18 090 (В) 10 км    10/10 600 м 
[Sc]
+17.4 +11.9 70 +22  1012.1  0.2  737  277           
09 15.06.18 090 (В) 10 км    9/8 600 м средняя, верхняя 
[Sc|Ac trans|Ci fib]
+21.3 +13.2 60 +27  1012.3  0.3  738  273           
21 15.06.18 080 (В) 10 км    8/0 верхняя 
[Ci fib]
+15.1 +7.1 59 +15  1015.2  0.8  740  281           
00 16.06.18 060 (СВ) 10 км    8/0 средняя, верхняя 
[Ac As|Ci fib]
+14 +6.9 62 +15  1016.8  1.4  741  283           
09 16.06.18 100 (В) 10 км    9/3 1000 м средняя, верхняя 
[Sc|Ac trans|Cc]
+21.1 +8.3 44 +21  1016.6  0.3  741  276           
12 16.06.18 080 (В) 10 км    9/8 1000 м средняя 
[Sc|Ac trans]
+21.7 +7.4 40 +22  1016.1  -0.4  741  275           
15 16.06.18 070 (В) 10 км    9/6 1000 м средняя 
[Sc|Ac trans]
+21.3 +6.9 39 +21  1016.3  0.2  741  276           
21 16.06.18 080 (В) 10 км  в посл. час ливневой дождь  9/9 600 м 
[Sc diur, vesp]
+17.7 +5.1 43 +19  1017.2  0.2  741  280           
09 17.06.18 090 (В) 10 км    3/0 верхняя 
[Ci fib]
+22.9 +5.7 33 +23  1017.2  0.1  742  275           
12 17.06.18 070 (В) 10 км    3/0 верхняя 
[Ci sp]
+24.6 +6.1 30 +25  1016.1  -0.9  741  273           
15 17.06.18 070 (В) 10 км    3/0 верхняя 
[Ci fib]
+24.7 +3.5 25 +25  1015.3  -0.9  740  273           
21 17.06.18 070 (В) 10 км    ясно 
+17.6 +6.9 49 +19  1016.7  0.2  741  279           
00 18.06.18 020 (С) 10 км    ясно 
+15.7 +7.1 57 +17  1017  741  281           
09 18.06.18 030 (СВ) 10 км    6/3 600 м верхняя 
[Cu hum|Ci fib]
+23.9 +5.3 30 +24  1016  -0.3  741  274           
12 18.06.18 340 (С) 10 км    4/3 600 м верхняя 
[Cu hum|Ci fib]
+25.5 +4.3 25 +26  1015.3  -0.6  740  272           
15 18.06.18 260 (З) 10 км    6/3 600 м верхняя 
[Cu hum|Ci fib]
+26.2 +5.4 26 +26  1014.3  -0.8  740  271           
21 18.06.18 тихо ()   10 км    ясно 
+17.7 +8.4 54 +18  1015.8  0.5  740  279           
00 19.06.18 тихо ()   10 км    ясно 
+16.9 +8.4 57 +17  1016.1  0.1  740  279           
09 19.06.18 290 (З) 10 км    9/3 600 м верхняя 
[Sc|Ci fib]
+25.9 +8.8 34 +26  1015.6  741  271           
12 19.06.18 270 (З) 10 км    8/4 600 м верхняя 
[Sc|Ci fib]
+27.3 +9.7 33 +28  1014.3  -1  740  269           
15 19.06.18 260 (З) 10 км    6/3 600 м средняя, верхняя 
[Sc|Ac As|Ci fib]
+26.9 +12 40 +31  1013.2  -1.1  739  269           
21 19.06.18 230 (ЮЗ) 10 км    3/0 верхняя 
[Ci fib]
+20.4 +13.2 63 +26  1013.8  0.1  739  274           
00 20.06.18 240 (ЮЗ) 10 км    10/0 средняя 
[Ac und]
+19.8 +14 69 +28  1012.9  -0.9  738  274           
Время (UTC), дата Ветер
(°,м/с) 
Видим.   Явления Облачность Т
(°С)
Тd
(°С)
f(%) Тe
(°С)
Pmin
(гПа)
dP
(гПа)
Po
(мм)
O2
(г/м3)
Тmin Tmax R s Состояние
почвы

Для получения пояснительной информации подведите курсор к названию столбца.

ПОГОДА в Курске - архив

Всё, что Вы хотите узнать о погоде в Курске - удобно и подробно!

Выберите нужную дату (начиная с 1 января 2015* года) и нажмите кнопку "Найти".
Будут отображены архивные сводки погоды по пункту Курск, начиная с указанной даты.


Отображать данные в формате CSV (для использования в таблицах Excel)


Внимание! Наш архив погоды предназначен исключительно для личного некоммерческого использования в познавательных целях. Если Вам необходимы официальные справки о состоянии погоды (для производственных, юридических, коммерческих и т.п. целей), обращайтесь в органы Росгидромета.

*Примечание: данная дата относится к архиву по метеостанциям СССР (Россия, СНГ, Балтия).
Архив по метеостанциям Зарубежной Европы и Азии (кроме Китая) хранится 10 дней, по другим регионам земного шара (Китай, Африка, Америка, Австралия, Океания) - 1 день.

Курск - район местоположения метеостанции


Название, широта, долгота, высота метеостанции:
Курск 51.8°ш. 36.2°д. 247 м над ур. моря [Российская Федерация]

Дополнительная информация

В oтличие oт бoльшинства пoгoдных сайтoв мы публикуем пoдрoбную метеoинфoрмацию в детальнoм прoфессиoнальнoм фoрмате.

Характеристики температуры и влажнoсти вoздуха измеряются на высoте 2 м в тени вдали oт зданий и деревьев.
Скoрoсть ветра измеряется на высoте 10 м (на урoвне рoста челoвека скoрoсть ветра ниже в 1.5-2 раза). Если метеoстанция нахoдится в гoрoде или в лесу, тo скoрoсть ветра занижена на 2-4 м/с пo сравнению с oткрытым местoм. Скoрoсть ветра над акватoриями крупных рек и oзёр, а также на вершинах хoлмoв на 2-5 м/с выше, чем в oбычных услoвиях.
Атмoсфернoе давление в разных тoчках местнoсти мoжет значительнo oтличаться oт давления на метеoстанции, в зависимoсти oт услoвий рельефа (при пoдъёме на 10 м давление пoнижается примернo на 1 мм рт.ст.).